DLH2HK EDDV-LFLL

Flight info

Callsign DLH2HK
Flight time 1h 18m
Altitude 37000
Route WRB N850 GISEM DCT ELVET DCT LASAT/N0445F390 DCT MILPA
Aircraft A320/M-SDE3FGHIRWY/LB1

Departure

Time 2026-05-04 14:06
Airport Hannover Airport (EDDV)

Arrival

Time 2026-05-04 15:25
Airport Lyon Saint-Exupéry Airport (LFLL)
Time Latitude Longitude Altitude Speed Heading
2026-05-04 13:42 52.45844 9.69321 179 ft 0 kts 47°
2026-05-04 13:58 52.45794 9.69249 178 ft 4 kts
2026-05-04 13:58 52.45760 9.69295 178 ft 4 kts 276°
2026-05-04 13:58 52.45759 9.69318 178 ft 0 kts 272°
2026-05-04 14:00 52.45760 9.69304 178 ft 1 kts 272°
2026-05-04 14:00 52.45760 9.69295 178 ft 1 kts 273°
2026-05-04 14:01 52.45760 9.69287 178 ft 0 kts 274°
2026-05-04 14:01 52.45771 9.69256 178 ft 2 kts 309°
2026-05-04 14:02 52.45801 9.69216 178 ft 8 kts 322°
2026-05-04 14:02 52.45851 9.69153 178 ft 12 kts 323°
2026-05-04 14:02 52.45926 9.69061 179 ft 14 kts 323°
2026-05-04 14:02 52.46011 9.68954 179 ft 16 kts 323°
2026-05-04 14:03 52.46109 9.68832 178 ft 19 kts 322°
2026-05-04 14:03 52.46214 9.68739 178 ft 17 kts
2026-05-04 14:03 52.46281 9.68898 178 ft 19 kts 68°
2026-05-04 14:03 52.46332 9.69105 178 ft 20 kts 69°
2026-05-04 14:04 52.46444 9.69577 178 ft 24 kts 69°
2026-05-04 14:04 52.46504 9.69824 178 ft 18 kts 68°
2026-05-04 14:04 52.46541 9.70019 178 ft 19 kts 77°
2026-05-04 14:05 52.46623 9.70384 176 ft 16 kts 15°
2026-05-04 14:05 52.46687 9.70260 175 ft 18 kts 272°
2026-05-04 14:05 52.46696 9.69991 176 ft 44 kts 273°
2026-05-04 14:06 52.46721 9.69079 175 ft 113 kts 272°
2026-05-04 14:06 52.46763 9.67488 207 ft 162 kts 273°
2026-05-04 14:06 52.46812 9.65664 889 ft 160 kts 274°
2026-05-04 14:06 52.46866 9.63844 1622 ft 163 kts 274°
2026-05-04 14:07 52.46736 9.61902 2019 ft 186 kts 244°
2026-05-04 14:07 52.45719 9.60413 2449 ft 217 kts 204°
2026-05-04 14:07 52.44198 9.59611 3001 ft 242 kts 199°
2026-05-04 14:07 52.42528 9.58767 3716 ft 256 kts 199°
2026-05-04 14:08 52.40810 9.57893 4670 ft 261 kts 200°
2026-05-04 14:08 52.39072 9.57000 5655 ft 263 kts 200°
2026-05-04 14:08 52.37327 9.56090 6630 ft 264 kts 199°
2026-05-04 14:08 52.35568 9.55165 7573 ft 266 kts 200°
2026-05-04 14:09 52.32000 9.53281 9406 ft 273 kts 200°
2026-05-04 14:09 52.30180 9.52322 10231 ft 279 kts 200°
2026-05-04 14:10 52.26195 9.50210 11061 ft 317 kts 200°
2026-05-04 14:10 52.24076 9.49091 11797 ft 323 kts 200°
2026-05-04 14:10 52.21923 9.47958 12599 ft 327 kts 200°
2026-05-04 14:10 52.19743 9.46815 13385 ft 331 kts 200°
2026-05-04 14:11 52.17536 9.45662 14109 ft 335 kts 200°
2026-05-04 14:11 52.13056 9.43319 15491 ft 341 kts 200°
2026-05-04 14:11 52.10787 9.42134 16196 ft 344 kts 200°
2026-05-04 14:12 52.08501 9.40940 16919 ft 346 kts 200°
2026-05-04 14:12 52.06198 9.39738 17652 ft 349 kts 200°
2026-05-04 14:12 52.01535 9.37308 18924 ft 355 kts 200°
2026-05-04 14:13 51.99209 9.36097 19498 ft 357 kts 200°
2026-05-04 14:13 51.96835 9.34860 20088 ft 360 kts 200°
2026-05-04 14:13 51.94442 9.33619 20676 ft 362 kts 200°
2026-05-04 14:13 51.92034 9.32373 21243 ft 365 kts 200°
2026-05-04 14:14 51.89607 9.31114 21790 ft 367 kts 200°
2026-05-04 14:14 51.84705 9.28578 22900 ft 373 kts 200°
2026-05-04 14:14 51.82224 9.27297 23435 ft 375 kts 200°
2026-05-04 14:15 51.77218 9.24714 24364 ft 379 kts 200°
2026-05-04 14:15 51.72167 9.22129 25324 ft 382 kts 201°
2026-05-04 14:16 51.67080 9.19521 26210 ft 385 kts 200°
2026-05-04 14:16 51.64517 9.18209 26630 ft 387 kts 200°
2026-05-04 14:17 51.59356 9.15569 27486 ft 391 kts 200°
2026-05-04 14:17 51.56760 9.14244 27913 ft 392 kts 200°
2026-05-04 14:17 51.51535 9.11582 28728 ft 396 kts 200°
2026-05-04 14:18 51.48856 9.10495 29137 ft 399 kts 195°
2026-05-04 14:18 51.43391 9.08646 29933 ft 404 kts 194°
2026-05-04 14:19 51.37860 9.06774 30553 ft 408 kts 195°
2026-05-04 14:19 51.35075 9.05829 30844 ft 410 kts 195°
2026-05-04 14:19 51.32273 9.04878 31130 ft 412 kts 195°
2026-05-04 14:19 51.29524 9.03625 31398 ft 410 kts 206°
2026-05-04 14:20 51.27015 9.01488 31695 ft 409 kts 212°
2026-05-04 14:20 51.24551 8.99247 32109 ft 407 kts 212°
2026-05-04 14:20 51.22097 8.97001 32510 ft 406 kts 212°
2026-05-04 14:21 51.17210 8.92521 33294 ft 404 kts 212°
2026-05-04 14:21 51.14772 8.90303 33704 ft 403 kts 212°
2026-05-04 14:21 51.12341 8.88101 34101 ft 402 kts 212°
2026-05-04 14:21 51.09913 8.85907 34451 ft 401 kts 212°
2026-05-04 14:22 51.07492 8.83719 34750 ft 401 kts 212°
2026-05-04 14:22 51.05069 8.81525 35031 ft 401 kts 212°
2026-05-04 14:22 51.02646 8.79330 35303 ft 401 kts 212°
2026-05-04 14:22 51.00218 8.77136 35560 ft 401 kts 212°
2026-05-04 14:23 50.95354 8.72754 36048 ft 402 kts 212°
2026-05-04 14:23 50.92921 8.70563 36295 ft 403 kts 212°
2026-05-04 14:23 50.90482 8.68372 36548 ft 403 kts 212°
2026-05-04 14:24 50.88040 8.66180 36775 ft 403 kts 211°
2026-05-04 14:24 50.85596 8.63992 36950 ft 404 kts 211°
2026-05-04 14:24 50.83152 8.61808 36986 ft 403 kts 211°
2026-05-04 14:25 50.78280 8.57467 36983 ft 401 kts 211°
2026-05-04 14:25 50.70983 8.50973 36986 ft 401 kts 211°
2026-05-04 14:26 50.66120 8.46653 36986 ft 401 kts 211°
2026-05-04 14:26 50.61253 8.42343 36985 ft 401 kts 211°
2026-05-04 14:27 50.57201 8.38773 36994 ft 402 kts 211°
2026-05-04 14:27 50.52292 8.34448 36988 ft 402 kts 211°
2026-05-04 14:28 50.47448 8.30183 36989 ft 402 kts 211°
2026-05-04 14:28 50.42567 8.25895 36987 ft 402 kts 211°
2026-05-04 14:29 50.32789 8.17360 36977 ft 402 kts 211°
2026-05-04 14:30 50.27893 8.13095 36993 ft 403 kts 211°
2026-05-04 14:31 50.20554 8.06711 36991 ft 402 kts 211°
2026-05-04 14:32 50.10765 7.98240 36987 ft 402 kts 210°
2026-05-04 14:32 50.05869 7.94014 36990 ft 402 kts 210°
2026-05-04 14:33 50.00973 7.89805 36991 ft 402 kts 210°
2026-05-04 14:33 49.96073 7.85609 36995 ft 402 kts 210°
2026-05-04 14:34 49.91171 7.81422 36992 ft 402 kts 210°
2026-05-04 14:34 49.86270 7.77230 36999 ft 402 kts 210°
2026-05-04 14:35 49.81367 7.73043 37006 ft 403 kts 210°
2026-05-04 14:35 49.76456 7.68870 37024 ft 402 kts 210°
2026-05-04 14:36 49.71546 7.64720 37006 ft 402 kts 210°
2026-05-04 14:36 49.66638 7.60570 37002 ft 402 kts 210°
2026-05-04 14:37 49.61737 7.56427 36998 ft 402 kts 210°
2026-05-04 14:37 49.56834 7.52291 36994 ft 402 kts 210°
2026-05-04 14:38 49.51921 7.48174 37009 ft 402 kts 210°
2026-05-04 14:38 49.47009 7.44065 37001 ft 402 kts 210°
2026-05-04 14:39 49.42096 7.39953 37004 ft 402 kts 210°
2026-05-04 14:39 49.37184 7.35855 37003 ft 402 kts 210°
2026-05-04 14:40 49.29815 7.29715 37007 ft 402 kts 209°
2026-05-04 14:40 49.24898 7.25644 36998 ft 402 kts 209°
2026-05-04 14:41 49.19977 7.21583 36991 ft 402 kts 209°
2026-05-04 14:42 49.09974 7.14082 36997 ft 404 kts 200°
2026-05-04 14:42 49.04626 7.11442 36989 ft 404 kts 199°
2026-05-04 14:43 48.99272 7.08814 36994 ft 404 kts 199°
2026-05-04 14:43 48.93917 7.06188 36999 ft 404 kts 199°
2026-05-04 14:44 48.88562 7.03549 37003 ft 404 kts 200°
2026-05-04 14:44 48.83210 7.00919 37003 ft 404 kts 199°
2026-05-04 14:45 48.77855 6.98301 37024 ft 404 kts 199°
2026-05-04 14:45 48.72509 6.95699 37019 ft 404 kts 199°
2026-05-04 14:46 48.67158 6.93100 37020 ft 404 kts 199°
2026-05-04 14:46 48.61808 6.90499 37019 ft 404 kts 199°
2026-05-04 14:47 48.56457 6.87901 37018 ft 404 kts 199°
2026-05-04 14:47 48.51107 6.85313 37018 ft 404 kts 199°
2026-05-04 14:48 48.45760 6.82733 37016 ft 403 kts 199°
2026-05-04 14:48 48.40412 6.80155 37002 ft 404 kts 199°
2026-05-04 14:49 48.35059 6.77583 37003 ft 404 kts 199°
2026-05-04 14:49 48.29702 6.75021 37005 ft 404 kts 199°
2026-05-04 14:50 48.24344 6.72454 37006 ft 404 kts 199°
2026-05-04 14:50 48.18990 6.69895 36999 ft 404 kts 199°
2026-05-04 14:51 48.13628 6.67368 36999 ft 404 kts 198°
2026-05-04 14:51 48.08239 6.64947 37002 ft 404 kts 198°
2026-05-04 14:52 48.02843 6.62556 37002 ft 405 kts 198°
2026-05-04 14:52 47.97483 6.60177 37008 ft 404 kts 198°
2026-05-04 14:53 47.92090 6.57773 37016 ft 404 kts 198°
2026-05-04 14:53 47.86701 6.55371 37020 ft 404 kts 198°
2026-05-04 14:54 47.81310 6.52987 37012 ft 404 kts 198°
2026-05-04 14:54 47.75924 6.50604 37028 ft 404 kts 198°
2026-05-04 14:55 47.70541 6.48216 37030 ft 403 kts 198°
2026-05-04 14:55 47.65158 6.45843 37032 ft 403 kts 198°
2026-05-04 14:56 47.59778 6.43474 37025 ft 403 kts 199°
2026-05-04 14:56 47.54403 6.41113 37024 ft 403 kts 198°
2026-05-04 14:57 47.49027 6.38762 37024 ft 403 kts 198°
2026-05-04 14:57 47.43648 6.36414 37026 ft 403 kts 198°
2026-05-04 14:58 47.38267 6.34069 37023 ft 403 kts 198°
2026-05-04 14:58 47.32884 6.31728 36912 ft 404 kts 199°
2026-05-04 14:59 47.30192 6.30553 36643 ft 403 kts 198°
2026-05-04 14:59 47.27508 6.29383 36381 ft 402 kts 198°
2026-05-04 14:59 47.22143 6.27056 35388 ft 403 kts 198°
2026-05-04 15:00 47.19445 6.25888 34688 ft 403 kts 198°
2026-05-04 15:00 47.16774 6.24732 34231 ft 398 kts 198°
2026-05-04 15:00 47.14133 6.23591 33694 ft 393 kts 198°
2026-05-04 15:01 47.08956 6.21362 32719 ft 382 kts 197°
2026-05-04 15:01 47.06416 6.20270 32227 ft 378 kts 197°
2026-05-04 15:01 47.03909 6.19192 31741 ft 374 kts 197°
2026-05-04 15:01 47.01425 6.18125 31270 ft 370 kts 197°
2026-05-04 15:02 46.98966 6.17071 30810 ft 366 kts 197°
2026-05-04 15:02 46.96534 6.16030 30366 ft 363 kts 196°
2026-05-04 15:02 46.94124 6.15000 29874 ft 360 kts 196°
2026-05-04 15:02 46.91733 6.13980 29418 ft 355 kts 196°
2026-05-04 15:03 46.89378 6.12973 28993 ft 350 kts 196°
2026-05-04 15:03 46.87053 6.11977 28573 ft 346 kts 196°
2026-05-04 15:03 46.84760 6.10994 28160 ft 341 kts 196°
2026-05-04 15:03 46.82498 6.10027 27763 ft 337 kts 196°
2026-05-04 15:04 46.80263 6.09073 27380 ft 332 kts 196°
2026-05-04 15:04 46.78057 6.08132 26997 ft 328 kts 197°
2026-05-04 15:04 46.75876 6.07200 26626 ft 326 kts 197°
2026-05-04 15:04 46.73709 6.06277 26259 ft 324 kts 197°
2026-05-04 15:05 46.71553 6.05365 25892 ft 322 kts 197°
2026-05-04 15:05 46.69407 6.04460 25495 ft 320 kts 197°
2026-05-04 15:05 46.67273 6.03558 25128 ft 318 kts 197°
2026-05-04 15:05 46.65151 6.02658 24746 ft 317 kts 197°
2026-05-04 15:06 46.63039 6.01760 24349 ft 315 kts 197°
2026-05-04 15:06 46.60938 6.00869 23961 ft 314 kts 197°
2026-05-04 15:06 46.58848 5.99987 23545 ft 312 kts 197°
2026-05-04 15:07 46.54699 5.98237 22703 ft 308 kts 197°
2026-05-04 15:07 46.52646 5.97373 22304 ft 306 kts 197°
2026-05-04 15:07 46.50603 5.96516 21894 ft 305 kts 197°
2026-05-04 15:07 46.48569 5.95662 21509 ft 303 kts 197°
2026-05-04 15:08 46.46547 5.94813 21122 ft 302 kts 197°
2026-05-04 15:08 46.44534 5.93968 20732 ft 300 kts 197°
2026-05-04 15:08 46.42531 5.93127 20347 ft 299 kts 197°
2026-05-04 15:08 46.40538 5.92290 19987 ft 298 kts 197°
2026-05-04 15:09 46.38553 5.91459 19608 ft 297 kts 197°
2026-05-04 15:09 46.36572 5.90631 19221 ft 296 kts 197°
2026-05-04 15:09 46.34592 5.89805 18856 ft 296 kts 197°
2026-05-04 15:10 46.31018 5.87040 18074 ft 294 kts 223°
2026-05-04 15:10 46.30103 5.85583 17771 ft 301 kts 231°
2026-05-04 15:10 46.28348 5.79953 16777 ft 312 kts 249°
2026-05-04 15:11 46.27652 5.76979 16287 ft 313 kts 249°
2026-05-04 15:11 46.26946 5.73999 15787 ft 314 kts 248°
2026-05-04 15:11 46.26228 5.71006 15286 ft 316 kts 248°
2026-05-04 15:11 46.25504 5.68002 14791 ft 318 kts 248°
2026-05-04 15:12 46.24774 5.64979 14275 ft 320 kts 248°
2026-05-04 15:12 46.24040 5.61934 13764 ft 322 kts 248°
2026-05-04 15:12 46.23311 5.58905 13473 ft 314 kts 249°
2026-05-04 15:12 46.22610 5.55978 13329 ft 303 kts 249°
2026-05-04 15:13 46.21931 5.53150 13127 ft 295 kts 249°
2026-05-04 15:13 46.21262 5.50376 12759 ft 289 kts 249°
2026-05-04 15:13 46.20606 5.47653 12068 ft 286 kts 249°
2026-05-04 15:13 46.19954 5.44949 11374 ft 284 kts 249°
2026-05-04 15:14 46.19307 5.42270 10701 ft 282 kts 249°
2026-05-04 15:14 46.18511 5.39714 10125 ft 280 kts 236°
2026-05-04 15:14 46.17232 5.37633 9879 ft 276 kts 220°
2026-05-04 15:14 46.15620 5.36174 9255 ft 274 kts 205°
2026-05-04 15:15 46.13895 5.35033 8677 ft 272 kts 205°
2026-05-04 15:15 46.12180 5.33904 8367 ft 269 kts 205°
2026-05-04 15:15 46.10551 5.32577 7928 ft 270 kts 217°
2026-05-04 15:16 46.07916 5.28861 7277 ft 264 kts 225°
2026-05-04 15:16 46.06637 5.26982 6980 ft 262 kts 224°
2026-05-04 15:16 46.04114 5.23286 6179 ft 256 kts 224°
2026-05-04 15:17 46.02867 5.21467 5658 ft 253 kts 223°
2026-05-04 15:17 46.00541 5.18070 5279 ft 227 kts 222°
2026-05-04 15:17 45.99455 5.16479 5141 ft 219 kts 222°
2026-05-04 15:18 45.98411 5.14959 5043 ft 208 kts 222°
2026-05-04 15:18 45.97416 5.13514 4967 ft 200 kts 221°
2026-05-04 15:18 45.96449 5.12109 4879 ft 196 kts 221°
2026-05-04 15:19 45.94556 5.09356 4693 ft 189 kts 221°
2026-05-04 15:19 45.93634 5.08056 4617 ft 179 kts 214°
2026-05-04 15:19 45.91480 5.06996 4353 ft 156 kts 179°
2026-05-04 15:20 45.90437 5.07120 4183 ft 141 kts 177°
2026-05-04 15:20 45.89489 5.07235 3981 ft 135 kts 177°
2026-05-04 15:20 45.88558 5.07343 3793 ft 134 kts 177°
2026-05-04 15:20 45.87634 5.07459 3616 ft 134 kts 176°
2026-05-04 15:21 45.86712 5.07569 3425 ft 133 kts 177°
2026-05-04 15:21 45.85793 5.07683 3300 ft 132 kts 176°
2026-05-04 15:21 45.83969 5.07908 2922 ft 131 kts 177°
2026-05-04 15:22 45.83058 5.08011 2748 ft 131 kts 175°
2026-05-04 15:22 45.82149 5.08116 2578 ft 131 kts 175°
2026-05-04 15:22 45.80339 5.08339 2201 ft 130 kts 174°
2026-05-04 15:23 45.79440 5.08468 2053 ft 130 kts 174°
2026-05-04 15:23 45.78543 5.08586 1884 ft 129 kts 175°
2026-05-04 15:23 45.77649 5.08690 1631 ft 129 kts 173°
2026-05-04 15:23 45.76746 5.08799 1461 ft 131 kts 173°
2026-05-04 15:24 45.74919 5.09012 1121 ft 132 kts 173°
2026-05-04 15:24 45.73084 5.09238 804 ft 127 kts 174°
2026-05-04 15:25 45.72388 5.09328 813 ft 61 kts 175°
2026-05-04 15:25 45.72161 5.09310 814 ft 27 kts 196°
2026-05-04 15:25 45.71997 5.09213 815 ft 25 kts 205°
2026-05-04 15:26 45.71705 5.09182 811 ft 19 kts 176°
2026-05-04 15:26 45.71639 5.09137 814 ft 6 kts 244°
2026-05-04 15:26 45.71619 5.08908 814 ft 15 kts 263°
2026-05-04 15:27 45.71610 5.08776 810 ft 14 kts 265°
2026-05-04 15:27 45.71628 5.08509 803 ft 13 kts 333°
2026-05-04 15:28 45.71820 5.08478 802 ft 12 kts 355°
2026-05-04 15:28 45.71893 5.08469 802 ft 9 kts 354°
2026-05-04 15:28 45.71968 5.08307 799 ft 11 kts 284°
2026-05-04 15:29 45.71984 5.08218 797 ft 9 kts 281°
2026-05-04 15:30 45.71970 5.08041 797 ft 0 kts 240°